OK2IGL-6 Weather Reports


Display with metric or nautical units.
time (UTC)temp
F
wind
direction
speed
MPH
gust
MPH
rain 1hr
in
rain 24hr
in
rain mn
in
humidity
%
barometer
mb
20260503232144 57 0 0.0 0.0 0.00 0.00 0.00 54 1012.0
20260503231434 57 0 0.0 0.0 0.00 0.00 0.00 54 1012.0
20260503230725 57 0 0.0 0.0 0.00 0.00 0.00 54 1012.0
20260503230015 57 0 0.0 0.0 0.00 0.00 0.00 54 1012.0
20260503225306 58 0 0.0 0.0 0.00 0.00 0.00 53 1012.0
20260503224557 58 0 0.0 0.0 0.00 0.00 0.00 53 1012.0
20260503223847 58 0 0.0 0.0 0.00 0.00 0.00 53 1012.0
20260503223138 58 0 0.0 0.0 0.00 0.00 0.00 52 1012.0
20260503222428 58 0 0.0 0.0 0.00 0.00 0.00 52 1012.0
20260503221719 58 0 0.0 0.0 0.00 0.00 0.00 52 1012.0
20260503221009 58 0 0.0 0.0 0.00 0.00 0.00 52 1012.0
20260503220300 58 0 0.0 0.0 0.00 0.00 0.00 52 1012.0
20260503215309 58 0 0.0 0.0 0.00 0.00 0.00 52 1012.0
20260503214600 59 0 0.0 0.0 0.00 0.00 0.00 52 1012.0
20260503213850 59 0 0.0 0.0 0.00 0.00 0.00 52 1012.0
20260503213141 59 0 0.0 0.0 0.00 0.00 0.00 51 1012.0
20260503212431 59 0 0.0 0.0 0.00 0.00 0.00 51 1013.0
20260503211722 60 0 0.0 0.0 0.00 0.00 0.00 51 1012.0
20260503211012 60 0 0.0 0.0 0.00 0.00 0.00 51 1013.0
20260503210303 60 0 0.0 0.0 0.00 0.00 0.00 51 1012.0
20260503205553 60 0 0.0 0.0 0.00 0.00 0.00 52 1012.0
20260503204844 60 0 0.0 0.0 0.00 0.00 0.00 52 1012.0
20260503204135 60 0 0.0 0.0 0.00 0.00 0.00 52 1013.0
20260503203425 60 0 0.0 0.0 0.00 0.00 0.00 52 1012.0
20260503202716 60 0 0.0 0.0 0.00 0.00 0.00 53 1012.0
20260503202006 60 0 0.0 0.0 0.00 0.00 0.00 52 1013.0
20260503201257 60 0 0.0 0.0 0.00 0.00 0.00 53 1012.0
20260503200306 61 0 0.0 0.0 0.00 0.00 0.00 54 1012.0
20260503195557 62 0 0.0 0.0 0.00 0.00 0.00 54 1013.0
20260503194847 62 0 0.0 0.0 0.00 0.00 0.00 53 1012.0
20260503194138 62 0 0.0 0.0 0.00 0.00 0.00 53 1013.0
20260503193428 62 0 0.0 0.0 0.00 0.00 0.00 52 1012.0
20260503192719 62 0 0.0 0.0 0.00 0.00 0.00 52 1013.0
20260503192009 63 0 0.0 0.0 0.00 0.00 0.00 52 1013.0
20260503191300 64 0 0.0 0.0 0.00 0.00 0.00 52 1013.0
20260503190551 64 0 0.0 0.0 0.00 0.00 0.00 51 1012.0
20260503185841 64 0 0.0 0.0 0.00 0.00 0.00 50 1013.0
20260503185132 65 0 0.0 0.0 0.00 0.00 0.00 50 1012.0
20260503184422 65 0 0.0 0.0 0.00 0.00 0.00 50 1012.0
20260503183713 66 0 0.0 0.0 0.00 0.00 0.00 49 1012.0
20260503183003 66 0 0.0 0.0 0.00 0.00 0.00 49 1013.0
20260503182254 66 0 0.0 0.0 0.00 0.00 0.00 48 1012.0
20260503181303 67 0 0.0 0.0 0.00 0.00 0.00 48 1013.0
20260503180554 68 0 0.0 0.0 0.00 0.00 0.00 47 1013.0
20260503175844 68 0 0.0 0.0 0.00 0.00 0.00 46 1013.0
20260503175135 68 0 0.0 0.0 0.00 0.00 0.00 46 1012.0
20260503174426 69 0 0.0 0.0 0.00 0.00 0.00 46 1012.0
20260503173716 70 0 0.0 0.0 0.00 0.00 0.00 45 1012.0
20260503173007 70 0 0.0 0.0 0.00 0.00 0.00 45 1013.0
20260503172257 70 0 0.0 0.0 0.00 0.00 0.00 44 1012.0
20260503171548 71 0 0.0 0.0 0.00 0.00 0.00 44 1012.0
20260503170838 72 0 0.0 0.0 0.00 0.00 0.00 43 1012.0
20260503170129 72 0 0.0 0.0 0.00 0.00 0.00 43 1012.0
20260503160132 74 0 0.0 0.0 0.00 0.00 0.00 41 1012.0
20260503150417 76 0 0.0 0.0 0.00 0.00 0.00 38 1013.0
20260503131413 77 0 0.0 0.0 0.00 0.00 0.00 38 1014.0
20260503130704 77 0 0.0 0.0 0.00 0.00 0.00 37 1014.0
20260503110242 75 0 0.0 0.0 0.00 0.00 0.00 40 1015.0
20260503100245 74 0 0.0 0.0 0.00 0.00 0.00 41 1015.0
20260503090249 72 0 0.0 0.0 0.00 0.00 0.00 44 1016.0
20260503081242 69 0 0.0 0.0 0.00 0.00 0.00 45 1016.0
20260503080533 69 0 0.0 0.0 0.00 0.00 0.00 45 1016.0
20260503072236 69 0 0.0 0.0 0.00 0.00 0.00 45 1016.0
20260503071245 69 0 0.0 0.0 0.00 0.00 0.00 45 1016.0
20260503070536 69 0 0.0 0.0 0.00 0.00 0.00 46 1016.0
20260503060111 62 0 0.0 0.0 0.00 0.00 0.00 55 1016.0
20260503054652 60 0 0.0 0.0 0.00 0.00 0.00 58 1016.0
20260503053943 60 0 0.0 0.0 0.00 0.00 0.00 59 1015.0
20260503053233 58 0 0.0 0.0 0.00 0.00 0.00 62 1015.0
20260503052243 55 0 0.0 0.0 0.00 0.00 0.00 66 1016.0
20260503051533 54 0 0.0 0.0 0.00 0.00 0.00 66 1015.0
20260503050824 54 0 0.0 0.0 0.00 0.00 0.00 67 1016.0
20260503050114 54 0 0.0 0.0 0.00 0.00 0.00 67 1016.0
20260503045405 53 0 0.0 0.0 0.00 0.00 0.00 68 1016.0
20260503044655 52 0 0.0 0.0 0.00 0.00 0.00 68 1016.0
20260503043946 52 0 0.0 0.0 0.00 0.00 0.00 68 1016.0
20260503043236 52 0 0.0 0.0 0.00 0.00 0.00 69 1016.0
20260503042527 52 0 0.0 0.0 0.00 0.00 0.00 69 1016.0
20260503041817 51 0 0.0 0.0 0.00 0.00 0.00 69 1016.0
20260503041108 51 0 0.0 0.0 0.00 0.00 0.00 69 1016.0
20260503040359 50 0 0.0 0.0 0.00 0.00 0.00 69 1016.0
20260503035649 50 0 0.0 0.0 0.00 0.00 0.00 70 1015.0
20260503034940 50 0 0.0 0.0 0.00 0.00 0.00 70 1016.0
20260503034230 50 0 0.0 0.0 0.00 0.00 0.00 70 1015.0
20260503033240 50 0 0.0 0.0 0.00 0.00 0.00 71 1016.0
20260503032530 50 0 0.0 0.0 0.00 0.00 0.00 72 1015.0
20260503031821 48 0 0.0 0.0 0.00 0.00 0.00 74 1016.0
20260503031111 48 0 0.0 0.0 0.00 0.00 0.00 76 1016.0
20260503030402 46 0 0.0 0.0 0.00 0.00 0.00 80 1016.0
20260503025652 43 0 0.0 0.0 0.00 0.00 0.00 85 1015.0
20260503024943 42 0 0.0 0.0 0.00 0.00 0.00 84 1016.0
20260503024233 42 0 0.0 0.0 0.00 0.00 0.00 83 1016.0
20260503023524 42 0 0.0 0.0 0.00 0.00 0.00 83 1015.0
20260503022814 42 0 0.0 0.0 0.00 0.00 0.00 83 1015.0
20260503022105 42 0 0.0 0.0 0.00 0.00 0.00 83 1016.0
20260503021356 42 0 0.0 0.0 0.00 0.00 0.00 83 1015.0
20260503020646 42 0 0.0 0.0 0.00 0.00 0.00 83 1015.0
20260503015937 42 0 0.0 0.0 0.00 0.00 0.00 83 1016.0
20260503015227 42 0 0.0 0.0 0.00 0.00 0.00 83 1016.0
20260503014237 42 0 0.0 0.0 0.00 0.00 0.00 83 1015.0
20260503013527 42 0 0.0 0.0 0.00 0.00 0.00 81 1015.0
20260503012818 42 0 0.0 0.0 0.00 0.00 0.00 82 1015.0
20260503012108 42 0 0.0 0.0 0.00 0.00 0.00 80 1016.0
20260503011359 42 0 0.0 0.0 0.00 0.00 0.00 81 1015.0
20260503010649 42 0 0.0 0.0 0.00 0.00 0.00 81 1015.0
20260503005940 42 0 0.0 0.0 0.00 0.00 0.00 80 1016.0
20260503005230 42 0 0.0 0.0 0.00 0.00 0.00 79 1016.0
20260503004521 42 0 0.0 0.0 0.00 0.00 0.00 81 1016.0
20260503003812 42 0 0.0 0.0 0.00 0.00 0.00 78 1016.0
20260503003102 43 0 0.0 0.0 0.00 0.00 0.00 79 1016.0
20260503002353 43 0 0.0 0.0 0.00 0.00 0.00 79 1016.0
20260503001643 44 0 0.0 0.0 0.00 0.00 0.00 79 1016.0
20260503000934 44 0 0.0 0.0 0.00 0.00 0.00 78 1016.0
20260503000225 44 0 0.0 0.0 0.00 0.00 0.00 78 1016.0
20260502235234 44 0 0.0 0.0 0.00 0.00 0.00 78 1016.0
20260502234524 44 0 0.0 0.0 0.00 0.00 0.00 76 1016.0
20260502233815 44 0 0.0 0.0 0.00 0.00 0.00 78 1016.0
20260502233105 44 0 0.0 0.0 0.00 0.00 0.00 77 1016.0
20260502232356 45 0 0.0 0.0 0.00 0.00 0.00 76 1016.0